Regional Weather Roundup
Issued by NWS

Home | Current Version | Previous Version | Graphics & Text | Print | Product List | Glossary On
Versions: 1 2 3 4 5 6 7 8 9 10 11 12 13 14 15 16 17 18 19 20 21 22 23 24 25 26 27 28 29 30 31 32 33 34 35 36 37 38 39 40 41 42 43 44 45 46 47 48 49 50
000
ASUS43 KFSD 240302
RWRSD

WEATHER ROUNDUP FOR SOUTH DAKOTA
NATIONAL WEATHER SERVICE SIOUX FALLS SD
1000 PM CDT THU OCT 23 2014

NOTE: "FAIR" INDICATES FEW OR NO CLOUDS BELOW 12,000 FEET WITH NO
SIGNIFICANT WEATHER AND/OR OBSTRUCTIONS TO VISIBILITY.


SDZ001>005-009-010-012>017-240400-
NORTHWEST AND NORTH CENTRAL SOUTH DAKOTA

CITY           SKY/WX    TMP DP  RH WIND       PRES   REMARKS
FAITH            N/A     55  30  38 SW5       29.88F
MOBRIDGE       MOCLDY    54  40  59 E6        29.84F
$$

SDZ012>016-024>037-041>051-057-063-072>074-240400-
SOUTHWEST AND SOUTH CENTRAL SOUTH DAKOTA

CITY           SKY/WX    TMP DP  RH WIND       PRES   REMARKS
RAPID CTY ARPT MOCLDY    48  32  53 NW3       29.92F
PIERRE         MOCLDY    48  35  60 N5        29.85R
CUSTER         MOCLDY    46  26  45 W5        30.02S
ELLSWORTH AFB  MOCLDY    48  33  57 W6        29.92S
PHILIP         MOCLDY    45  33  63 W7        29.88S
PINE RIDGE     PTCLDY    41  35  79 CALM      29.94S
SPEARFISH      FAIR      46  32  57 CALM      29.95S
WINNER         FAIR      61  36  39 SW5       29.87S
$$

SDZ004>011-016>023-039-040-240400-
NORTHEAST SOUTH DAKOTA

CITY           SKY/WX    TMP DP  RH WIND       PRES   REMARKS
ABERDEEN       MOCLDY    47  42  83 S9        29.86F
WATERTOWN      CLOUDY    51  44  77 S7        29.90S
SISSETON         N/A     50  42  74 SW7       29.87R
$$

SDZ017-020-022-023-036>040-048>070-240400-
SOUTHEAST SOUTH DAKOTA

CITY           SKY/WX    TMP DP  RH WIND       PRES   REMARKS
SIOUX FALLS    MOCLDY    59  46  62 S13       29.94F
HURON          MOCLDY    49  42  77 SE8       29.86F
CHAMBERLAIN    CLOUDY    51  41  70 SE5       29.86S
MITCHELL       MOCLDY    55  47  74 S10       29.88F
YANKTON        MOCLDY    57  48  72 SE6       29.93F
$$

ABBREVIATIONS USED IN REMARKS
   TC - TEMPERATURE IN CELSIUS
  WCI - WIND CHILL INDEX
   HX - HEAT INDEX
  VSB - VISIBILITY




USA.gov is the U.S. government's official web portal to all federal, state and local government web resources and services.